Location: Moscow
(55.7500°N, 37.5830°E)
Time: 22:29:36
(UTC+03:00)

COSMOS 2251 DEB - Pass Details

Date: 04 July 2022
Orbit: 738 x 847 km, 74.1° (Epoch: 17 August)

Event Time Altitude Azimuth Distance (km) Brightness Sun altitude
Rises 02:46:11 0° 331° (NNW) 3,263 ? -6.5°
Reaches altitude 10° 02:48:55 10° 343° (NNW) 2,315 ? -6.3°
Maximum altitude 02:53:27 29° 43° (NE) 1,372 ? -6.0°
Drops below altitude 10° 02:57:52 10° 103° (ESE) 2,262 ? -5.6°
Sets 03:00:30 0° 115° (ESE) 3,174 ? -5.4°
